,,,PA_Meas_PMT16A,,PR_Meas_QMR101_102,,RH_Meas_QMH101,,SR_Meas_QMS101,,TA_Meas_QMH101,,GenWind,,GenWind,
date,time,status,PA,status,PR,status,RH,status,SR,status,TA,status,DirAvg,status,SpdAvg,
2011-08-26, 00:00:04,VALID,999.16,VALID,0,VALID,52.713,VALID,0.112286,VALID,27.897,VALID,171,VALID,4.15508,
2011-08-26, 00:01:04,VALID,999.153,VALID,0,VALID,52.9801,VALID,0,VALID,27.8558,VALID,171,VALID,3.86406,
2011-08-26, 00:02:04,VALID,999.148,VALID,0,VALID,52.713,VALID,0,VALID,27.8579,VALID,168,VALID,4.95391,
2011-08-26, 00:03:04,VALID,999.117,VALID,0,VALID,52.385,VALID,0,VALID,27.8579,VALID,183,VALID,4.63242,
2011-08-26, 00:04:04,VALID,999.108,VALID,0,VALID,52.3316,VALID,0,VALID,27.9165,VALID,182,VALID,4.83086,
2011-08-26, 00:05:04,VALID,999.076,VALID,0,VALID,52.0798,VALID,0.112286,VALID,27.934,VALID,179,VALID,5.24141,
2011-08-26, 00:06:04,VALID,999.056,VALID,0,VALID,51.9043,VALID,0.112286,VALID,27.973,VALID,174,VALID,6.06719,
2011-08-26, 00:07:04,VALID,998.976,VALID,0,VALID,51.5305,VALID,0.112286,VALID,28.0121,VALID,185,VALID,6.68086,
2011-08-26, 00:08:04,VALID,999.013,VALID,0,VALID,51.416,VALID,0,VALID,28.0512,VALID,174,VALID,5.93477,
2011-08-26, 00:09:04,VALID,999.055,VALID,0,VALID,51.7136,VALID,0,VALID,28.0533,VALID,175,VALID,5.19883,
2011-08-26, 00:10:04,VALID,999.072,VALID,0,VALID,51.355,VALID,0,VALID,28.0533,VALID,170,VALID,6.58359,
2011-08-26, 00:11:04,VALID,998.965,VALID,0,VALID,51.3473,VALID,0,VALID,28.0728,VALID,166,VALID,5.20625,
2011-08-26, 00:12:04,VALID,999.023,VALID,0,VALID,51.6983,VALID,0,VALID,28.0533,VALID,178,VALID,4.38516,
2011-08-26, 00:13:04,VALID,998.987,VALID,0,VALID,51.8967,VALID,0,VALID,28.0338,VALID,167,VALID,4.89375,
2011-08-26, 00:14:04,VALID,998.969,VALID,0,VALID,51.7517,VALID,0,VALID,27.9947,VALID,172,VALID,4.87617,
2011-08-26, 00:15:04,VALID,999.021,VALID,0,VALID,51.8967,VALID,0,VALID,27.9752,VALID,180,VALID,3.88945,
2011-08-26, 00:16:04,VALID,998.997,VALID,0,VALID,52.0798,VALID,0,VALID,27.9556,VALID,171,VALID,3.95664,
2011-08-26, 00:17:04,VALID,998.954,VALID,0,VALID,51.9653,VALID,0,VALID,27.9361,VALID,182,VALID,4.31758,
2011-08-26, 00:18:04,VALID,998.987,VALID,0,VALID,51.9959,VALID,0,VALID,27.9535,VALID,180,VALID,3.86641,
2011-08-26, 00:19:04,VALID,998.94,VALID,0,VALID,52.3316,VALID,0,VALID,27.897,VALID,172,VALID,3.56875,
2011-08-26, 00:20:04,VALID,998.981,VALID,0,VALID,52.2019,VALID,0,VALID,27.9165,VALID,183,VALID,3.38359,
2011-08-26, 00:21:04,VALID,998.921,VALID,0,VALID,51.6907,VALID,0,VALID,27.9144,VALID,185,VALID,5.51758,
2011-08-26, 00:22:04,VALID,998.879,VALID,0,VALID,51.7822,VALID,0,VALID,27.9556,VALID,169,VALID,4.59492,
2011-08-26, 00:23:04,VALID,998.883,VALID,0,VALID,51.4999,VALID,0,VALID,27.9556,VALID,173,VALID,5.67422,
2011-08-26, 00:24:04,VALID,998.847,VALID,0,VALID,51.7441,VALID,0,VALID,28.0142,VALID,195,VALID,3.58203,
2011-08-26, 00:25:04,VALID,998.841,VALID,0,VALID,51.5228,VALID,0,VALID,27.9947,VALID,181,VALID,4.75469,
2011-08-26, 00:26:04,VALID,998.838,VALID,0,VALID,50.943,VALID,0,VALID,28.0728,VALID,177,VALID,6.53594,
2011-08-26, 00:27:04,VALID,998.846,VALID,0,VALID,51.1261,VALID,0,VALID,28.1119,VALID,175,VALID,5.96055,
2011-08-26, 00:28:04,VALID,998.863,VALID,0,VALID,51.0269,VALID,0.112286,VALID,28.0902,VALID,191,VALID,4.88086,
2011-08-26, 00:29:04,VALID,998.808,VALID,0,VALID,51.0269,VALID,0,VALID,28.1119,VALID,187,VALID,4.86914,
2011-08-26, 00:30:04,VALID,998.826,VALID,0,VALID,51.1871,VALID,0,VALID,28.0924,VALID,186,VALID,4.67305,
2011-08-26, 00:31:04,VALID,998.796,VALID,0,VALID,50.9811,VALID,0,VALID,28.0924,VALID,181,VALID,4.37578,
2011-08-26, 00:32:04,VALID,998.777,VALID,0,VALID,51.149,VALID,0,VALID,28.0924,VALID,184,VALID,3.71836,
2011-08-26, 00:33:04,VALID,998.753,VALID,0,VALID,51.3855,VALID,0,VALID,28.0533,VALID,187,VALID,2.52695,
2011-08-26, 00:34:04,VALID,998.755,VALID,0,VALID,51.622,VALID,0,VALID,28.0338,VALID,192,VALID,2.33242,
2011-08-26, 00:35:04,VALID,998.76,VALID,0,VALID,51.149,VALID,0,VALID,28.0338,VALID,173,VALID,5.01602,
2011-08-26, 00:36:04,VALID,998.704,VALID,0,VALID,50.7217,VALID,0,VALID,28.0512,VALID,177,VALID,5.79883,
2011-08-26, 00:37:04,VALID,998.711,VALID,0,VALID,51.1337,VALID,0.112286,VALID,28.0728,VALID,178,VALID,3.93164,
2011-08-26, 00:38:04,VALID,998.692,VALID,0,VALID,50.7751,VALID,0,VALID,28.0924,VALID,191,VALID,4.50195,
2011-08-26, 00:39:04,VALID,998.703,VALID,0,VALID,50.9506,VALID,0,VALID,28.0728,VALID,172,VALID,4.25664,
2011-08-26, 00:40:04,VALID,998.661,VALID,0,VALID,50.9048,VALID,0,VALID,28.0533,VALID,163,VALID,4.04258,
2011-08-26, 00:41:04,VALID,998.691,VALID,0,VALID,51.21,VALID,0,VALID,28.0554,VALID,172,VALID,2.95977,
2011-08-26, 00:42:04,VALID,998.66,VALID,0,VALID,51.416,VALID,0,VALID,28.0164,VALID,175,VALID,5.51641,
2011-08-26, 00:43:04,VALID,998.639,VALID,0,VALID,51.1719,VALID,0,VALID,28.0142,VALID,178,VALID,4.84844,
2011-08-26, 00:44:04,VALID,998.642,VALID,0,VALID,51.1795,VALID,0,VALID,28.0533,VALID,176,VALID,4.75898,
2011-08-26, 00:45:04,VALID,998.654,VALID,0,VALID,51.0498,VALID,0,VALID,28.0533,VALID,190,VALID,5.44805,
2011-08-26, 00:46:04,VALID,998.613,VALID,0,VALID,51.1108,VALID,0,VALID,28.0924,VALID,174,VALID,7.09492,
2011-08-26, 00:47:04,VALID,998.576,VALID,0,VALID,51.21,VALID,0,VALID,28.1119,VALID,184,VALID,6.30117,
2011-08-26, 00:48:04,VALID,998.661,VALID,0,VALID,51.21,VALID,0,VALID,28.0924,VALID,181,VALID,6.07852,
2011-08-26, 00:49:04,VALID,998.586,VALID,0,VALID,51.1261,VALID,0,VALID,28.114,VALID,166,VALID,5.84141,
2011-08-26, 00:50:04,VALID,998.685,VALID,0,VALID,51.3245,VALID,0,VALID,28.0728,VALID,176,VALID,6.53633,
2011-08-26, 00:51:04,VALID,998.653,VALID,0,VALID,50.9811,VALID,0,VALID,28.1119,VALID,180,VALID,7.36289,
2011-08-26, 00:52:04,VALID,998.699,VALID,0,VALID,51.21,VALID,0,VALID,28.1531,VALID,172,VALID,6.08477,
2011-08-26, 00:53:04,VALID,998.731,VALID,0,VALID,51.4999,VALID,0,VALID,28.0945,VALID,178,VALID,5.45195,
2011-08-26, 00:54:04,VALID,998.651,VALID,0,VALID,51.3779,VALID,0,VALID,28.0902,VALID,186,VALID,6.03477,
2011-08-26, 00:55:04,VALID,998.646,VALID,0,VALID,51.1261,VALID,0,VALID,28.0707,VALID,164,VALID,6.47461,
2011-08-26, 00:56:04,VALID,998.712,VALID,0,VALID,51.3321,VALID,0,VALID,28.0728,VALID,185,VALID,5.51875,
2011-08-26, 00:57:04,VALID,998.628,VALID,0,VALID,51.477,VALID,0.112286,VALID,28.0707,VALID,164,VALID,7.60156,
2011-08-26, 00:58:04,VALID,998.672,VALID,0,VALID,51.3473,VALID,0,VALID,28.0924,VALID,173,VALID,8.02344,
2011-08-26, 00:59:04,VALID,998.618,VALID,0,VALID,51.3702,VALID,0,VALID,28.0924,VALID,170,VALID,8.21211,
2011-08-26, 01:00:04,VALID,998.748,VALID,0,VALID,51.561,VALID,0,VALID,28.0924,VALID,174,VALID,5.39492,
2011-08-26, 01:01:04,VALID,998.688,VALID,0,VALID,51.5381,VALID,0,VALID,28.0707,VALID,172,VALID,5.09766,
2011-08-26, 01:02:04,VALID,998.705,VALID,0,VALID,51.6754,VALID,0,VALID,28.0728,VALID,175,VALID,5.73516,
2011-08-26, 01:03:04,VALID,998.72,VALID,0,VALID,51.7517,VALID,0.112286,VALID,28.0316,VALID,174,VALID,6.53594,
2011-08-26, 01:04:04,VALID,998.743,VALID,0,VALID,51.9653,VALID,0,VALID,28.0512,VALID,173,VALID,6.09492,
2011-08-26, 01:05:04,VALID,998.7,VALID,0,VALID,51.6907,VALID,0,VALID,28.0512,VALID,172,VALID,7.67852,
2011-08-26, 01:06:04,VALID,998.789,VALID,0,VALID,52.0493,VALID,0,VALID,28.0316,VALID,163,VALID,7.25977,
2011-08-26, 01:07:04,VALID,998.776,VALID,0,VALID,52.1637,VALID,0,VALID,28.0512,VALID,174,VALID,6.37695,
2011-08-26, 01:08:04,VALID,998.802,VALID,0,VALID,52.24,VALID,0,VALID,28.0533,VALID,176,VALID,6.34883,
2011-08-26, 01:09:04,VALID,998.8,VALID,0,VALID,52.4002,VALID,0,VALID,28.0142,VALID,179,VALID,5.37734,
2011-08-26, 01:10:04,VALID,998.83,VALID,0,VALID,52.5376,VALID,0,VALID,28.0142,VALID,176,VALID,6.72617,
2011-08-26, 01:11:04,VALID,998.802,VALID,0,VALID,52.7359,VALID,0,VALID,27.9752,VALID,172,VALID,5.67969,
2011-08-26, 01:12:04,VALID,998.831,VALID,0,VALID,53.0182,VALID,0,VALID,27.934,VALID,167,VALID,5.9332,
2011-08-26, 01:13:04,VALID,998.858,VALID,0,VALID,53.0411,VALID,0,VALID,27.897,VALID,174,VALID,5.82695,
2011-08-26, 01:14:04,VALID,998.885,VALID,0,VALID,53.4913,VALID,0,VALID,27.8775,VALID,179,VALID,5.40039,
2011-08-26, 01:15:04,VALID,998.877,VALID,0,VALID,53.7659,VALID,0.112286,VALID,27.8363,VALID,174,VALID,5.00039,
2011-08-26, 01:16:04,VALID,998.92,VALID,0,VALID,53.7812,VALID,0,VALID,27.8579,VALID,182,VALID,4.19961,
2011-08-26, 01:17:04,VALID,998.885,VALID,0,VALID,53.888,VALID,0,VALID,27.8579,VALID,188,VALID,5.34258,
2011-08-26, 01:18:04,VALID,998.777,VALID,0,VALID,54.2924,VALID,0,VALID,27.8189,VALID,172,VALID,7.17383,
2011-08-26, 01:19:04,VALID,998.825,VALID,0,VALID,54.4526,VALID,0,VALID,27.7777,VALID,173,VALID,5.29336,
2011-08-26, 01:20:04,VALID,998.779,VALID,0,VALID,54.4297,VALID,0,VALID,27.7798,VALID,184,VALID,4.10586,
2011-08-26, 01:21:04,VALID,998.798,VALID,0,VALID,54.445,VALID,0,VALID,27.7386,VALID,177,VALID,4.80312,
2011-08-26, 01:22:04,VALID,998.731,VALID,0,VALID,54.4831,VALID,0,VALID,27.7582,VALID,195,VALID,6.68594,
2011-08-26, 01:23:04,VALID,998.764,VALID,0,VALID,54.7883,VALID,0,VALID,27.7407,VALID,180,VALID,5.62266,
2011-08-26, 01:24:04,VALID,998.731,VALID,0,VALID,54.8341,VALID,0,VALID,27.7212,VALID,179,VALID,6.15,
2011-08-26, 01:25:04,VALID,998.659,VALID,0,VALID,54.8188,VALID,0,VALID,27.7212,VALID,181,VALID,5.84727,
2011-08-26, 01:26:04,VALID,998.606,VALID,0,VALID,54.7273,VALID,0,VALID,27.7212,VALID,179,VALID,7.35781,
2011-08-26, 01:27:04,VALID,998.655,VALID,0,VALID,54.7273,VALID,0,VALID,27.7407,VALID,178,VALID,6.64844,
2011-08-26, 01:28:04,VALID,998.665,VALID,0,VALID,54.8722,VALID,0,VALID,27.7603,VALID,178,VALID,5.07383,
2011-08-26, 01:29:04,VALID,998.664,VALID,0,VALID,54.9943,VALID,0,VALID,27.7407,VALID,176,VALID,5.25,
2011-08-26, 01:30:04,VALID,998.672,VALID,0,VALID,55.0172,VALID,0,VALID,27.7017,VALID,182,VALID,5.5082,
2011-08-26, 01:31:04,VALID,998.658,VALID,0,VALID,54.9867,VALID,0.112286,VALID,27.6996,VALID,186,VALID,6.04531,
2011-08-26, 01:32:04,VALID,998.689,VALID,0,VALID,55.0553,VALID,0,VALID,27.6996,VALID,194,VALID,4.29727,
2011-08-26, 01:33:04,VALID,998.664,VALID,0,VALID,55.2308,VALID,0,VALID,27.6821,VALID,192,VALID,5.19453,
2011-08-26, 01:34:04,VALID,998.633,VALID,0,VALID,55.3147,VALID,0,VALID,27.7017,VALID,176,VALID,7.37656,
2011-08-26, 01:35:04,VALID,998.751,VALID,0,VALID,55.4368,VALID,0,VALID,27.68,VALID,182,VALID,4.95469,
2011-08-26, 01:36:04,VALID,998.758,VALID,0,VALID,55.681,VALID,0,VALID,27.7017,VALID,176,VALID,5.70352,
2011-08-26, 01:37:04,VALID,998.75,VALID,0,VALID,55.7267,VALID,0,VALID,27.6214,VALID,211,VALID,3.09102,
2011-08-26, 01:38:04,VALID,998.792,VALID,0,VALID,55.8717,VALID,0,VALID,27.641,VALID,182,VALID,7.23086,
2011-08-26, 01:39:04,VALID,998.75,VALID,0,VALID,55.8564,VALID,0,VALID,27.6626,VALID,190,VALID,5.7082,
2011-08-26, 01:40:04,VALID,998.748,VALID,0,VALID,55.7954,VALID,0,VALID,27.6626,VALID,195,VALID,5.58281,
2011-08-26, 01:41:04,VALID,998.769,VALID,0,VALID,56.0853,VALID,0,VALID,27.6214,VALID,193,VALID,4.21758,
2011-08-26, 01:42:04,VALID,998.766,VALID,0,VALID,56.1159,VALID,0,VALID,27.604,VALID,193,VALID,3.95078,
2011-08-26, 01:43:04,VALID,998.762,VALID,0,VALID,56.4973,VALID,0,VALID,27.5649,VALID,192,VALID,2.61211,
2011-08-26, 01:44:04,VALID,998.751,VALID,0,VALID,56.4058,VALID,0.112286,VALID,27.5042,VALID,195,VALID,4.27187,
2011-08-26, 01:45:04,VALID,998.734,VALID,0,VALID,56.4058,VALID,0,VALID,27.5454,VALID,181,VALID,5.81953,
2011-08-26, 01:46:04,VALID,998.768,VALID,0,VALID,56.5355,VALID,0,VALID,27.5454,VALID,184,VALID,4.95352,
2011-08-26, 01:47:04,VALID,998.716,VALID,0,VALID,56.4287,VALID,0,VALID,27.5649,VALID,202,VALID,5.38672,
2011-08-26, 01:48:04,VALID,998.677,VALID,0,VALID,56.3676,VALID,0,VALID,27.5649,VALID,190,VALID,5.86133,
2011-08-26, 01:49:04,VALID,998.693,VALID,0,VALID,56.3753,VALID,0,VALID,27.5845,VALID,192,VALID,5.02734,
2011-08-26, 01:50:04,VALID,998.672,VALID,0,VALID,56.4973,VALID,0,VALID,27.5649,VALID,201,VALID,4.94883,
2011-08-26, 01:51:04,VALID,998.685,VALID,0,VALID,56.6194,VALID,0,VALID,27.5454,VALID,198,VALID,5.47266,
2011-08-26, 01:52:04,VALID,998.709,VALID,0,VALID,56.5584,VALID,0,VALID,27.5433,VALID,193,VALID,5.21484,
2011-08-26, 01:53:04,VALID,998.694,VALID,0,VALID,56.5431,VALID,0,VALID,27.604,VALID,193,VALID,4.98828,
2011-08-26, 01:54:04,VALID,998.69,VALID,0,VALID,56.7796,VALID,0,VALID,27.5649,VALID,195,VALID,3.86719,
2011-08-26, 01:55:04,VALID,998.707,VALID,0,VALID,56.7644,VALID,0,VALID,27.5649,VALID,190,VALID,5.13125,
2011-08-26, 01:56:04,VALID,998.731,VALID,0,VALID,56.7339,VALID,0,VALID,27.5454,VALID,191,VALID,4.16914,
2011-08-26, 01:57:04,VALID,998.731,VALID,0,VALID,56.8864,VALID,0,VALID,27.5063,VALID,202,VALID,4.29648,
2011-08-26, 01:58:04,VALID,998.729,VALID,0,VALID,56.9856,VALID,0,VALID,27.5063,VALID,194,VALID,4.42891,
2011-08-26, 01:59:04,VALID,998.743,VALID,0,VALID,57.3137,VALID,0,VALID,27.5063,VALID,198,VALID,3.28555,
2011-08-26, 02:00:04,VALID,998.7,VALID,0,VALID,57.2221,VALID,0,VALID,27.4672,VALID,188,VALID,3.46719,
2011-08-26, 02:01:04,VALID,998.716,VALID,0,VALID,57.3366,VALID,0,VALID,27.4477,VALID,178,VALID,5.07266,
2011-08-26, 02:02:04,VALID,998.742,VALID,0,VALID,57.4205,VALID,0,VALID,27.4477,VALID,184,VALID,4.20977,
2011-08-26, 02:03:04,VALID,998.691,VALID,0,VALID,57.3595,VALID,0,VALID,27.4672,VALID,179,VALID,6.4457,
2011-08-26, 02:04:04,VALID,998.735,VALID,0,VALID,57.5579,VALID,0,VALID,27.4868,VALID,180,VALID,4.78047,
2011-08-26, 02:05:04,VALID,998.704,VALID,0,VALID,57.6189,VALID,0,VALID,27.4868,VALID,189,VALID,3.67031,
2011-08-26, 02:06:04,VALID,998.68,VALID,0,VALID,57.596,VALID,0,VALID,27.4477,VALID,181,VALID,5.59883,
2011-08-26, 02:07:04,VALID,998.712,VALID,0,VALID,57.6494,VALID,0,VALID,27.4261,VALID,184,VALID,4.6668,
2011-08-26, 02:08:04,VALID,998.603,VALID,0,VALID,57.3061,VALID,0,VALID,27.4868,VALID,165,VALID,7.72383,
2011-08-26, 02:09:04,VALID,998.66,VALID,0,VALID,57.4205,VALID,0,VALID,27.5063,VALID,183,VALID,5.13125,
2011-08-26, 02:10:04,VALID,998.649,VALID,0,VALID,57.4129,VALID,0,VALID,27.5063,VALID,187,VALID,5.6332,
2011-08-26, 02:11:04,VALID,998.651,VALID,0,VALID,57.329,VALID,0,VALID,27.4868,VALID,177,VALID,5.52187,
2011-08-26, 02:12:04,VALID,998.641,VALID,0,VALID,57.4892,VALID,0,VALID,27.4672,VALID,183,VALID,3.77578,
2011-08-26, 02:13:04,VALID,998.616,VALID,0,VALID,57.3137,VALID,0,VALID,27.4652,VALID,183,VALID,6.0332,
2011-08-26, 02:14:04,VALID,998.622,VALID,0,VALID,57.1001,VALID,0,VALID,27.5042,VALID,199,VALID,4.99844,
2011-08-26, 02:15:04,VALID,998.604,VALID,0,VALID,57.123,VALID,0,VALID,27.5238,VALID,193,VALID,5.63555,
2011-08-26, 02:16:04,VALID,998.654,VALID,0,VALID,56.8788,VALID,0.112286,VALID,27.5845,VALID,180,VALID,6.59141,
2011-08-26, 02:17:04,VALID,998.633,VALID,0,VALID,56.8864,VALID,0,VALID,27.604,VALID,180,VALID,6.67422,
2011-08-26, 02:18:04,VALID,998.595,VALID,0,VALID,56.7567,VALID,0,VALID,27.604,VALID,186,VALID,5.70742,
2011-08-26, 02:19:04,VALID,998.671,VALID,0,VALID,56.9627,VALID,0,VALID,27.604,VALID,175,VALID,7.05234,
2011-08-26, 02:20:04,VALID,998.602,VALID,0,VALID,56.6347,VALID,0,VALID,27.6235,VALID,181,VALID,6.70742,
2011-08-26, 02:21:04,VALID,998.513,VALID,0,VALID,56.5126,VALID,0,VALID,27.641,VALID,184,VALID,7.85781,
2011-08-26, 02:22:04,VALID,998.606,VALID,0,VALID,56.6957,VALID,0.112286,VALID,27.6626,VALID,181,VALID,4.97773,
2011-08-26, 02:23:04,VALID,998.618,VALID,0,VALID,56.8254,VALID,0,VALID,27.6431,VALID,196,VALID,2.9875,
2011-08-26, 02:24:04,VALID,998.63,VALID,0,VALID,56.833,VALID,0,VALID,27.6019,VALID,189,VALID,6.37695,
2011-08-26, 02:25:04,VALID,998.542,VALID,0,VALID,56.8407,VALID,0.112286,VALID,27.6431,VALID,192,VALID,6.43477,
2011-08-26, 02:26:04,VALID,998.629,VALID,0,VALID,56.5813,VALID,0,VALID,27.6821,VALID,185,VALID,6.49023,
2011-08-26, 02:27:04,VALID,998.695,VALID,0,VALID,56.6576,VALID,0,VALID,27.6605,VALID,189,VALID,5.93906,
2011-08-26, 02:28:04,VALID,998.618,VALID,0,VALID,56.6957,VALID,0,VALID,27.6626,VALID,170,VALID,6.07109,
2011-08-26, 02:29:04,VALID,998.583,VALID,0,VALID,56.4897,VALID,0,VALID,27.6626,VALID,175,VALID,8.30742,
2011-08-26, 02:30:04,VALID,998.503,VALID,0,VALID,55.8107,VALID,0,VALID,27.7212,VALID,170,VALID,8.7625,
2011-08-26, 02:31:04,VALID,998.594,VALID,0,VALID,55.9938,VALID,0,VALID,27.7603,VALID,176,VALID,7.02187,
2011-08-26, 02:32:04,VALID,998.613,VALID,0,VALID,55.6733,VALID,0,VALID,27.7407,VALID,170,VALID,7.28203,
2011-08-26, 02:33:04,VALID,998.619,VALID,0,VALID,55.7878,VALID,0.112286,VALID,27.7017,VALID,178,VALID,5.99453,
2011-08-26, 02:34:04,VALID,998.633,VALID,0,VALID,55.7344,VALID,0,VALID,27.7212,VALID,160,VALID,8.13125,
2011-08-26, 02:35:04,VALID,998.539,VALID,0,VALID,55.2766,VALID,0,VALID,27.6996,VALID,169,VALID,6.74883,
2011-08-26, 02:36:04,VALID,998.619,VALID,0,VALID,55.5665,VALID,0,VALID,27.7017,VALID,173,VALID,6.54844,
2011-08-26, 02:37:04,VALID,998.656,VALID,0,VALID,55.4979,VALID,0,VALID,27.7017,VALID,171,VALID,6.69336,
2011-08-26, 02:38:04,VALID,998.667,VALID,0,VALID,55.6962,VALID,0,VALID,27.6821,VALID,180,VALID,5.93828,
2011-08-26, 02:39:04,VALID,998.575,VALID,0,VALID,55.4673,VALID,0,VALID,27.7038,VALID,181,VALID,6.56016,
2011-08-26, 02:40:04,VALID,998.651,VALID,0,VALID,55.6657,VALID,0,VALID,27.6842,VALID,180,VALID,4.66016,
2011-08-26, 02:41:04,VALID,998.599,VALID,0,VALID,55.1545,VALID,0,VALID,27.6842,VALID,178,VALID,7.89375,
2011-08-26, 02:42:04,VALID,998.506,VALID,0,VALID,54.8493,VALID,0,VALID,27.7038,VALID,153,VALID,8.01328,
2011-08-26, 02:43:04,VALID,998.558,VALID,0,VALID,55.124,VALID,0,VALID,27.6842,VALID,161,VALID,7.85391,
2011-08-26, 02:44:04,VALID,998.607,VALID,0,VALID,54.9867,VALID,0,VALID,27.6626,VALID,176,VALID,7.93398,
2011-08-26, 02:45:04,VALID,998.61,VALID,0,VALID,55.3224,VALID,0,VALID,27.6821,VALID,165,VALID,7.72539,
2011-08-26, 02:46:04,VALID,998.545,VALID,0,VALID,55.1774,VALID,0,VALID,27.6842,VALID,165,VALID,7.25039,
2011-08-26, 02:47:04,VALID,998.571,VALID,0,VALID,55.185,VALID,0,VALID,27.6431,VALID,178,VALID,6.27539,
2011-08-26, 02:48:04,VALID,998.57,VALID,0,VALID,55.2156,VALID,0,VALID,27.6431,VALID,176,VALID,6.46484,
2011-08-26, 02:49:04,VALID,998.598,VALID,0,VALID,55.3682,VALID,0,VALID,27.6452,VALID,173,VALID,6.58906,
2011-08-26, 02:50:04,VALID,998.546,VALID,0,VALID,55.2537,VALID,0,VALID,27.604,VALID,176,VALID,6.64687,
2011-08-26, 02:51:04,VALID,998.586,VALID,0,VALID,55.3224,VALID,0,VALID,27.6256,VALID,168,VALID,6.26406,
2011-08-26, 02:52:04,VALID,998.46,VALID,0,VALID,55.0096,VALID,0,VALID,27.6235,VALID,166,VALID,8.95195,
2011-08-26, 02:53:04,VALID,998.424,VALID,0,VALID,55.1316,VALID,0,VALID,27.6626,VALID,160,VALID,8.68633,
2011-08-26, 02:54:04,VALID,998.443,VALID,0,VALID,55.1087,VALID,0,VALID,27.6626,VALID,158,VALID,7.01563,
2011-08-26, 02:55:04,VALID,998.453,VALID,0,VALID,55.2003,VALID,0,VALID,27.6626,VALID,169,VALID,6.48516,
2011-08-26, 02:56:04,VALID,998.427,VALID,0,VALID,55.2308,VALID,0,VALID,27.6626,VALID,164,VALID,7.32539,
2011-08-26, 02:57:04,VALID,998.495,VALID,0,VALID,55.4597,VALID,0,VALID,27.6626,VALID,164,VALID,5.30117,
2011-08-26, 02:58:04,VALID,998.417,VALID,0,VALID,55.3605,VALID,0,VALID,27.6431,VALID,161,VALID,6.55703,
2011-08-26, 02:59:04,VALID,998.415,VALID,0,VALID,55.4216,VALID,0,VALID,27.6235,VALID,164,VALID,8.26563,
2011-08-26, 03:00:04,VALID,998.371,VALID,0,VALID,55.2079,VALID,0,VALID,27.6605,VALID,166,VALID,8.22148,
2011-08-26, 03:01:04,VALID,998.427,VALID,0,VALID,55.0401,VALID,0,VALID,27.6821,VALID,160,VALID,6.49102,
2011-08-26, 03:02:04,VALID,998.371,VALID,0,VALID,55.0477,VALID,0,VALID,27.6626,VALID,154,VALID,6.77383,
2011-08-26, 03:03:04,VALID,998.341,VALID,0,VALID,54.857,VALID,0,VALID,27.6821,VALID,176,VALID,8.22383,
2011-08-26, 03:04:04,VALID,998.434,VALID,0,VALID,54.567,VALID,0,VALID,27.7212,VALID,172,VALID,7.39883,
2011-08-26, 03:05:04,VALID,998.343,VALID,0,VALID,54.4679,VALID,0,VALID,27.7407,VALID,170,VALID,6.83398,
2011-08-26, 03:06:04,VALID,998.359,VALID,0,VALID,54.4373,VALID,0,VALID,27.7407,VALID,171,VALID,6.71484,
2011-08-26, 03:07:04,VALID,998.454,VALID,0,VALID,54.3076,VALID,0,VALID,27.7407,VALID,162,VALID,7.05703,
2011-08-26, 03:08:04,VALID,998.41,VALID,0,VALID,54.0025,VALID,0,VALID,27.7582,VALID,173,VALID,9.36836,
2011-08-26, 03:09:04,VALID,998.339,VALID,0,VALID,53.7049,VALID,0,VALID,27.7798,VALID,158,VALID,9.57461,
2011-08-26, 03:10:04,VALID,998.415,VALID,0,VALID,53.5142,VALID,0,VALID,27.8579,VALID,168,VALID,10.7824,
2011-08-26, 03:11:04,VALID,998.417,VALID,0,VALID,53.537,VALID,0,VALID,27.8579,VALID,167,VALID,6.7543,
2011-08-26, 03:12:04,VALID,998.435,VALID,0,VALID,53.8117,VALID,0,VALID,27.8384,VALID,166,VALID,6.96211,
2011-08-26, 03:13:04,VALID,998.435,VALID,0,VALID,54.0635,VALID,0,VALID,27.7993,VALID,159,VALID,5.7918,
2011-08-26, 03:14:04,VALID,998.434,VALID,0,VALID,54.094,VALID,0,VALID,27.7798,VALID,164,VALID,5.25234,
2011-08-26, 03:15:04,VALID,998.433,VALID,0,VALID,54.0101,VALID,0,VALID,27.7407,VALID,162,VALID,5.18906,
2011-08-26, 03:16:04,VALID,998.366,VALID,0,VALID,54.0253,VALID,0,VALID,27.7017,VALID,163,VALID,6.75977,
2011-08-26, 03:17:04,VALID,998.422,VALID,0,VALID,53.9948,VALID,0,VALID,27.7017,VALID,175,VALID,4.83008,
2011-08-26, 03:18:04,VALID,998.443,VALID,0,VALID,53.9643,VALID,0,VALID,27.6821,VALID,163,VALID,5.65156,
2011-08-26, 03:19:04,VALID,998.383,VALID,0,VALID,54.0559,VALID,0,VALID,27.6821,VALID,164,VALID,4.89375,
2011-08-26, 03:20:04,VALID,998.268,VALID,0,VALID,53.6591,VALID,0,VALID,27.7212,VALID,168,VALID,8.90312,
2011-08-26, 03:21:04,VALID,998.415,VALID,0,VALID,53.5905,VALID,0,VALID,27.7191,VALID,158,VALID,5.9,
2011-08-26, 03:22:04,VALID,998.451,VALID,0,VALID,53.6896,VALID,0,VALID,27.7407,VALID,168,VALID,5.45898,
2011-08-26, 03:23:04,VALID,998.354,VALID,0,VALID,53.5065,VALID,0,VALID,27.7798,VALID,175,VALID,7.46406,
2011-08-26, 03:24:04,VALID,998.421,VALID,0,VALID,53.5447,VALID,0,VALID,27.7582,VALID,171,VALID,5.36133,
2011-08-26, 03:25:04,VALID,998.459,VALID,0,VALID,53.9109,VALID,0,VALID,27.7407,VALID,160,VALID,3.20742,
2011-08-26, 03:26:04,VALID,998.394,VALID,0,VALID,53.6667,VALID,0,VALID,27.7017,VALID,162,VALID,4.31797,
2011-08-26, 03:27:04,VALID,998.376,VALID,0,VALID,53.7202,VALID,0,VALID,27.7017,VALID,162,VALID,5.80078,
2011-08-26, 03:28:04,VALID,998.389,VALID,0,VALID,53.4607,VALID,0,VALID,27.7603,VALID,170,VALID,5.2457,
2011-08-26, 03:29:04,VALID,998.346,VALID,0,VALID,53.27,VALID,0,VALID,27.8189,VALID,169,VALID,6.30508,
2011-08-26, 03:30:04,VALID,998.385,VALID,0,VALID,53.2853,VALID,0,VALID,27.7798,VALID,173,VALID,5.95703,
2011-08-26, 03:31:04,VALID,998.362,VALID,0,VALID,53.1479,VALID,0,VALID,27.8579,VALID,178,VALID,5.58945,
2011-08-26, 03:32:04,VALID,998.341,VALID,0,VALID,52.8351,VALID,0,VALID,27.8579,VALID,167,VALID,6.39922,
2011-08-26, 03:33:04,VALID,998.412,VALID,0,VALID,52.5757,VALID,0,VALID,27.8775,VALID,163,VALID,6.88711,
2011-08-26, 03:34:04,VALID,998.316,VALID,0,VALID,52.7283,VALID,0,VALID,27.8775,VALID,162,VALID,6.78086,
2011-08-26, 03:35:04,VALID,998.361,VALID,0,VALID,53.0869,VALID,0,VALID,27.8579,VALID,178,VALID,5.09844,
2011-08-26, 03:36:04,VALID,998.38,VALID,0,VALID,52.797,VALID,0.112286,VALID,27.8579,VALID,161,VALID,5.12461,
2011-08-26, 03:37:04,VALID,998.416,VALID,0,VALID,52.9648,VALID,0,VALID,27.8189,VALID,168,VALID,4.61328,
2011-08-26, 03:38:04,VALID,998.354,VALID,0,VALID,52.6596,VALID,0,VALID,27.8384,VALID,166,VALID,7.37773,
2011-08-26, 03:39:04,VALID,998.391,VALID,0,VALID,52.8809,VALID,0.112286,VALID,27.8775,VALID,176,VALID,6.01758,
2011-08-26, 03:40:04,VALID,998.388,VALID,0,VALID,52.713,VALID,0,VALID,27.8754,VALID,169,VALID,6.4832,
2011-08-26, 03:41:04,VALID,998.264,VALID,0,VALID,52.713,VALID,0,VALID,27.8579,VALID,163,VALID,5.79688,
2011-08-26, 03:42:04,VALID,998.38,VALID,0,VALID,52.6673,VALID,0,VALID,27.897,VALID,177,VALID,7.1707,
2011-08-26, 03:43:04,VALID,998.34,VALID,0,VALID,52.7817,VALID,0,VALID,27.8949,VALID,166,VALID,6.525,
2011-08-26, 03:44:04,VALID,998.338,VALID,0,VALID,53.0793,VALID,0,VALID,27.8558,VALID,178,VALID,6.72031,
2011-08-26, 03:45:04,VALID,998.353,VALID,0,VALID,52.7054,VALID,0,VALID,27.8775,VALID,173,VALID,7.37891,